Ohio State University, OH

2:53 PM EDT on May 23, 2018 (GMT -0400)
Ohio State University

Weather History for KOSU - September, 2013

Change the Weather History Date:

Thursday, September 19, 2013

  Actual Average Record
Temperature  
Mean Temperature 70 °F -  
Max Temperature 73 °F 73 °F 86 °F (1998)
Min Temperature 66 °F 50 °F 39 °F (2012)
Cooling Degree Days 4    
Growing Degree Days 20 (Base 50)    
Moisture  
Dew Point 65 °F    
Average Humidity 91    
Maximum Humidity 100    
Minimum Humidity 79    
Precipitation  
Precipitation 0.06 in - - ()
Sea Level Pressure  
Sea Level Pressure 30.06 in    
Wind  
Wind Speed 7 mph (SSE)    
Max Wind Speed 10 mph    
Max Gust Speed -    
Visibility 4 miles    
Events Rain    
Averages and records for this station are not official NWS values.
T = Trace of Precipitation, MM = Missing Value Source: NWS Daily Summary

Daily Weather History Graph

Daily Weather History Graph

Search for Another Location

Airport or City:

Astronomy

Sep. 19, 2013 Rise Set
Actual Time 7:17 AM EDT 7:33 PM EDT
Civil Twilight 6:50 AM EDT 8:01 PM EDT
Nautical Twilight 6:18 AM EDT 8:32 PM EDT
Astronomical Twilight 5:45 AM EDT 9:05 PM EDT
Moon 7:31 PM EDT (9/19) 7:25 AM EDT (9/19)
Length of Visible Light 13h 10m
Length of Day
12h 16m
Full, 100% of the Moon is Illuminated
Sep 19
Full
Sep 26
Last Quarter
Oct 4
New
Oct 11
First Quarter
Oct 18
Full

Hourly Weather History & Observations

Time (EDT) Temp. Dew Point Humidity Pressure Visibility Wind Dir Wind Speed Gust Speed Precip Events Conditions
12:53 AM 66.0 °F 63.0 °F 90% 30.10 in 5.0 mi South 8.1 mph - N/A   Overcast
1:39 AM 66.2 °F 62.6 °F 88% 30.11 in 5.0 mi SSE 5.8 mph - N/A   Overcast
1:53 AM 66.0 °F 63.0 °F 90% 30.09 in 5.0 mi SSE 6.9 mph - N/A   Overcast
2:53 AM 66.0 °F 63.0 °F 90% 30.09 in 5.0 mi South 6.9 mph - N/A   Overcast
3:53 AM 66.0 °F 63.0 °F 90% 30.09 in 5.0 mi South 5.8 mph - N/A   Overcast
4:53 AM 66.0 °F 63.0 °F 90% 30.08 in 4.0 mi SSE 8.1 mph - N/A   Overcast
5:53 AM 66.0 °F 64.0 °F 93% 30.08 in 3.0 mi South 8.1 mph - N/A   Overcast
6:53 AM 66.0 °F 64.0 °F 93% 30.08 in 3.0 mi South 6.9 mph - N/A   Overcast
6:57 AM 66.2 °F 64.4 °F 94% 30.10 in 3.0 mi South 8.1 mph - N/A   Overcast
7:19 AM 66.2 °F 64.4 °F 94% 30.10 in 2.0 mi South 6.9 mph - N/A   Overcast
7:53 AM 66.0 °F 64.0 °F 93% 30.09 in 2.0 mi South 6.9 mph - N/A   Overcast
8:53 AM 66.0 °F 64.0 °F 93% 30.09 in 2.5 mi SSE 9.2 mph - N/A   Overcast
9:49 AM 66.2 °F 64.4 °F 94% 30.11 in 3.0 mi SSE 8.1 mph - N/A   Overcast
9:50 AM 66.9 °F 64.0 °F 90% 30.09 in 3.0 mi SSE 6.9 mph - N/A   Overcast
10:30 AM 66.2 °F 64.4 °F 94% 30.10 in 2.5 mi SSE 8.1 mph - N/A   Overcast
10:38 AM 66.2 °F 64.4 °F 94% 30.09 in 3.0 mi Variable 5.8 mph - 0.00 in Rain Light Rain
10:53 AM 66.9 °F 64.9 °F 93% 30.09 in 3.0 mi SSE 8.1 mph - 0.00 in   Overcast
11:53 AM 69.1 °F 66.0 °F 90% 30.08 in 5.0 mi SSE 8.1 mph - 0.00 in   Overcast
12:53 PM 68.0 °F 66.0 °F 93% 30.08 in 4.0 mi South 5.8 mph - N/A   Overcast
1:53 PM 70.0 °F 66.0 °F 87% 30.06 in 5.0 mi South 6.9 mph - N/A   Overcast
2:07 PM 71.6 °F 66.2 °F 83% 30.07 in 5.0 mi South 5.8 mph - N/A   Haze
2:37 PM 71.6 °F 66.2 °F 83% 30.06 in 6.0 mi SE 6.9 mph - N/A   Haze
2:53 PM 73.0 °F 66.0 °F 79% 30.04 in 8.0 mi SSE 6.9 mph - N/A   Overcast
3:53 PM 72.0 °F 66.0 °F 81% 30.04 in 6.0 mi SSE 6.9 mph - N/A   Haze
4:18 PM 69.8 °F 66.2 °F 88% 30.05 in 1.8 mi SSW 5.8 mph - 0.03 in Rain Heavy Rain
4:34 PM 69.8 °F 68.0 °F 94% 30.05 in 3.0 mi SSW 3.5 mph - 0.06 in Rain Light Rain
4:53 PM 71.1 °F 68.0 °F 90% 30.03 in 4.0 mi SSE 4.6 mph - 0.06 in   Mostly Cloudy
5:01 PM 71.6 °F 68.0 °F 88% 30.04 in 4.0 mi SE 3.5 mph - N/A   Mostly Cloudy
5:48 PM 71.6 °F 68.0 °F 88% 30.05 in 5.0 mi SE 5.8 mph - N/A   Mostly Cloudy
5:53 PM 71.1 °F 68.0 °F 90% 30.04 in 6.0 mi SE 4.6 mph - N/A   Mostly Cloudy
6:16 PM 71.6 °F 66.2 °F 83% 30.05 in 7.0 mi SE 5.8 mph - N/A   Scattered Clouds
6:53 PM 71.1 °F 66.9 °F 87% 30.03 in 6.0 mi SE 5.8 mph - N/A   Partly Cloudy
7:53 PM 69.1 °F 66.9 °F 93% 29.99 in 6.0 mi SE 10.4 mph - N/A   Clear
8:53 PM 68.0 °F 66.0 °F 93% 30.00 in 5.0 mi SE 8.1 mph - N/A   Clear
9:34 PM 68.0 °F 66.2 °F 94% 30.01 in 5.0 mi SE 4.6 mph - N/A   Scattered Clouds
9:43 PM 68.0 °F 66.2 °F 94% 30.02 in 4.0 mi SE 5.8 mph - N/A   Mostly Cloudy
9:53 PM 66.9 °F 66.0 °F 97% 30.01 in 4.0 mi SE 4.6 mph - N/A   Mostly Cloudy
10:13 PM 66.2 °F 66.2 °F 100% 30.02 in 4.0 mi SE 4.6 mph - N/A   Scattered Clouds
10:53 PM 66.9 °F 66.0 °F 97% 30.01 in 3.0 mi SE 4.6 mph - N/A   Clear
11:38 PM 66.2 °F 66.2 °F 100% 30.03 in 3.0 mi SSE 3.5 mph - N/A   Mostly Cloudy
11:46 PM 66.2 °F 66.2 °F 100% 30.03 in 4.0 mi SSE 4.6 mph - N/A   Overcast
11:53 PM 68.0 °F 66.0 °F 93% 30.02 in 4.0 mi South 4.6 mph - N/A   Overcast